Tracking 21094 objects as of 12-Aug-2020
HD Live streaming from Space Station
objects crossing your sky now
Track the most recent launched group of Starlink satellites

DODECAPOLE 2 DEB

Track DODECAPOLE 2 DEB now!
10-day predictions


NORAD ID: 41734
Int'l Code: 2016-051D
Perigee: 880.1 km
Apogee: 941.9 km
Inclination: 90.0 °
Period: 103.1 minutes
Semi major axis: 7282 km
RCS: Unknown
Launch date: August 15, 2016
Source: United States (US)
Launch site: Jiuquan Satellite Launch Center, China (JSC)

Note: This is SATELLITE DEBRIS
aabbcc
Your satellite tracking list
Your tracking list is empty




NASA's NSSDC Master Catalog

Two Line Element Set (TLE):
1 41734U 65065U   20224.88611771 +.00001587 +00000-0 +11206-2 0  9993
2 41734 090.0319 014.6895 0042452 065.3612 295.1978 13.97090816236338
Source of the keplerian elements: AFSPC